QTR60X OTHH-EGCC

Flight info

Callsign QTR60X
Flight time N/A
Altitude 32000
Route LUBET L934 DAVUS L602 TASMI DCT GADSI DCT SEPTU DCT VUSEB DCT ODALI UL852 NEGEM DCT MAXOV DCT KARIL DCT KENIN DCT LENOV DCT MODGU DCT KORUP DCT UNRIG DCT BATEL DCT PETIK DCT RAVLO Y70 OTBED
Aircraft B789/H-SDE1E2E3FGHIJ2J3J4J5M1RWXY/LB1D1

Departure

Time 2026-05-04 18:18
Airport Hamad International Airport (OTHH)

Arrival

Time N/A
Airport Manchester Airport (EGCC)
Time Latitude Longitude Altitude Speed Heading
2026-05-04 17:30 25.26469 51.61313 27 ft 0 kts 248°
2026-05-04 17:55 25.26470 51.61315 27 ft 1 kts 248°
2026-05-04 17:55 25.26473 51.61325 28 ft 1 kts 248°
2026-05-04 17:57 25.26474 51.61326 27 ft 2 kts 248°
2026-05-04 17:57 25.26476 51.61331 27 ft 1 kts 248°
2026-05-04 17:57 25.26477 51.61336 27 ft 1 kts 248°
2026-05-04 17:58 25.26479 51.61342 27 ft 1 kts 248°
2026-05-04 17:58 25.26482 51.61349 27 ft 2 kts 248°
2026-05-04 17:58 25.26487 51.61364 25 ft 2 kts 248°
2026-05-04 17:58 25.26494 51.61376 24 ft 2 kts 217°
2026-05-04 17:59 25.26505 51.61382 25 ft 2 kts 180°
2026-05-04 17:59 25.26517 51.61378 25 ft 2 kts 155°
2026-05-04 17:59 25.26558 51.61378 25 ft 3 kts 169°
2026-05-04 18:00 25.26566 51.61376 25 ft 0 kts 156°
2026-05-04 18:02 25.26565 51.61376 27 ft 0 kts 156°
2026-05-04 18:03 25.26548 51.61385 27 ft 6 kts 156°
2026-05-04 18:03 25.26502 51.61408 27 ft 9 kts 156°
2026-05-04 18:03 25.26441 51.61434 27 ft 10 kts 160°
2026-05-04 18:03 25.26405 51.61457 27 ft 2 kts 127°
2026-05-04 18:04 25.26400 51.61469 27 ft 1 kts 114°
2026-05-04 18:04 25.26395 51.61491 27 ft 5 kts 96°
2026-05-04 18:04 25.26443 51.61645 27 ft 16 kts 68°
2026-05-04 18:05 25.26468 51.61712 27 ft 8 kts 68°
2026-05-04 18:05 25.26491 51.61780 27 ft 11 kts 69°
2026-05-04 18:05 25.26523 51.61863 27 ft 12 kts 61°
2026-05-04 18:05 25.26588 51.61901 27 ft 11 kts 353°
2026-05-04 18:06 25.26758 51.61837 27 ft 15 kts 339°
2026-05-04 18:06 25.26863 51.61790 27 ft 17 kts 338°
2026-05-04 18:06 25.26979 51.61739 27 ft 19 kts 338°
2026-05-04 18:07 25.27110 51.61681 27 ft 21 kts 338°
2026-05-04 18:07 25.27246 51.61621 27 ft 22 kts 338°
2026-05-04 18:07 25.27387 51.61558 27 ft 15 kts 338°
2026-05-04 18:07 25.27479 51.61516 27 ft 13 kts 325°
2026-05-04 18:08 25.27501 51.61425 27 ft 13 kts 251°
2026-05-04 18:08 25.27464 51.61322 27 ft 16 kts 249°
2026-05-04 18:08 25.27422 51.61202 27 ft 18 kts 248°
2026-05-04 18:08 25.27371 51.61067 27 ft 20 kts 249°
2026-05-04 18:09 25.27280 51.60807 27 ft 24 kts 249°
2026-05-04 18:09 25.27226 51.60661 27 ft 22 kts 247°
2026-05-04 18:10 25.27170 51.60512 27 ft 20 kts 250°
2026-05-04 18:10 25.27117 51.60364 27 ft 21 kts 246°
2026-05-04 18:10 25.27082 51.60310 27 ft 5 kts 209°
2026-05-04 18:10 25.27046 51.60303 27 ft 6 kts 187°
2026-05-04 18:11 25.27001 51.60281 27 ft 8 kts 221°
2026-05-04 18:11 25.26951 51.60247 27 ft 8 kts 187°
2026-05-04 18:11 25.26903 51.60255 27 ft 8 kts 163°
2026-05-04 18:11 25.26843 51.60277 27 ft 11 kts 161°
2026-05-04 18:12 25.26766 51.60310 27 ft 13 kts 156°
2026-05-04 18:12 25.26674 51.60355 27 ft 16 kts 156°
2026-05-04 18:12 25.26564 51.60403 27 ft 18 kts 159°
2026-05-04 18:12 25.26436 51.60459 27 ft 21 kts 158°
2026-05-04 18:13 25.26294 51.60522 28 ft 23 kts 158°
2026-05-04 18:13 25.26138 51.60590 27 ft 23 kts 158°
2026-05-04 18:13 25.25842 51.60721 27 ft 17 kts 158°
2026-05-04 18:14 25.25735 51.60768 27 ft 13 kts 158°
2026-05-04 18:14 25.25651 51.60772 27 ft 9 kts 214°
2026-05-04 18:14 25.25617 51.60717 28 ft 9 kts 246°
2026-05-04 18:15 25.25614 51.60709 28 ft 0 kts 246°
2026-05-04 18:15 25.25595 51.60659 27 ft 7 kts 250°
2026-05-04 18:15 25.25588 51.60598 27 ft 9 kts 275°
2026-05-04 18:16 25.25615 51.60529 26 ft 11 kts 308°
2026-05-04 18:16 25.25679 51.60479 27 ft 11 kts 336°
2026-05-04 18:16 25.25685 51.60476 27 ft 0 kts 336°
2026-05-04 18:17 25.26116 51.60287 30 ft 80 kts 338°
2026-05-04 18:18 25.26774 51.59995 27 ft 122 kts 337°
2026-05-04 18:18 25.27720 51.59581 29 ft 174 kts 338°
2026-05-04 18:18 25.28952 51.59038 559 ft 183 kts 336°
2026-05-04 18:18 25.30054 51.58554 1620 ft 174 kts 340°
2026-05-04 18:19 25.32694 51.57380 2142 ft 234 kts 339°
2026-05-04 18:19 25.34276 51.56681 2575 ft 251 kts 339°
2026-05-04 18:19 25.35879 51.55970 3461 ft 253 kts 339°
2026-05-04 18:20 25.36968 51.55487 4053 ft 254 kts 339°
2026-05-04 18:20 25.39166 51.54514 5314 ft 256 kts 339°
2026-05-04 18:20 25.40266 51.54027 5934 ft 257 kts 338°
2026-05-04 18:20 25.41936 51.53286 6805 ft 260 kts 338°
2026-05-04 18:21 25.43626 51.52536 7658 ft 264 kts 338°
2026-05-04 18:21 25.45295 51.51795 8493 ft 268 kts 337°
2026-05-04 18:21 25.47037 51.51027 9318 ft 271 kts 339°
2026-05-04 18:21 25.48945 51.50682 9779 ft 293 kts 360°
2026-05-04 18:22 25.51051 51.51178 9804 ft 328 kts 14°
2026-05-04 18:22 25.53332 51.51940 9798 ft 353 kts 13°
2026-05-04 18:22 25.55717 51.52717 9800 ft 360 kts 13°
2026-05-04 18:22 25.56805 51.53071 9795 ft 361 kts 13°
2026-05-04 18:23 25.59248 51.53870 9792 ft 362 kts 13°
2026-05-04 18:23 25.61665 51.54663 9793 ft 362 kts 13°
2026-05-04 18:23 25.64094 51.55377 9792 ft 359 kts
2026-05-04 18:23 25.66567 51.55411 9822 ft 357 kts 350°
2026-05-04 18:24 25.68964 51.54746 10534 ft 355 kts 341°
2026-05-04 18:24 25.71348 51.53936 11182 ft 361 kts 340°
2026-05-04 18:24 25.72754 51.53426 11584 ft 364 kts 340°
2026-05-04 18:24 25.75174 51.52534 12256 ft 369 kts 340°
2026-05-04 18:25 25.77635 51.51649 12932 ft 374 kts 340°
2026-05-04 18:25 25.80133 51.50768 13602 ft 380 kts 340°
2026-05-04 18:25 25.82644 51.49806 14183 ft 383 kts 333°
2026-05-04 18:25 25.84897 51.48220 14773 ft 385 kts 319°
2026-05-04 18:26 25.86758 51.46018 15383 ft 388 kts 307°
2026-05-04 18:26 25.88442 51.43649 15974 ft 393 kts 307°
2026-05-04 18:26 25.90091 51.41261 16557 ft 398 kts 306°
2026-05-04 18:26 25.91816 51.38773 17134 ft 402 kts 306°
2026-05-04 18:27 25.93545 51.36317 17691 ft 408 kts 306°
2026-05-04 18:27 25.95316 51.33799 17783 ft 417 kts 306°
2026-05-04 18:27 25.97123 51.31299 17776 ft 412 kts 311°
2026-05-04 18:27 25.99284 51.29191 18020 ft 415 kts 319°
2026-05-04 18:28 26.01508 51.27151 18623 ft 416 kts 319°
2026-05-04 18:28 26.03759 51.25113 19171 ft 418 kts 319°
2026-05-04 18:28 26.06029 51.23066 19709 ft 421 kts 319°
2026-05-04 18:28 26.08302 51.21003 20248 ft 424 kts 318°
2026-05-04 18:29 26.10588 51.18920 20763 ft 426 kts 318°
2026-05-04 18:29 26.12895 51.16822 21264 ft 429 kts 318°
2026-05-04 18:29 26.15214 51.14716 21763 ft 432 kts 318°
2026-05-04 18:29 26.17548 51.12593 22241 ft 434 kts 318°
2026-05-04 18:30 26.22253 51.08307 23152 ft 440 kts 318°
2026-05-04 18:30 26.24624 51.06147 23555 ft 442 kts 318°
2026-05-04 18:30 26.26960 51.03992 23934 ft 443 kts 317°
2026-05-04 18:31 26.29359 51.01727 24316 ft 445 kts 316°
2026-05-04 18:31 26.31729 50.99497 24684 ft 447 kts 317°
2026-05-04 18:31 26.34126 50.97267 25038 ft 449 kts 317°
2026-05-04 18:31 26.36530 50.95029 25403 ft 451 kts 316°
2026-05-04 18:32 26.38933 50.92778 25761 ft 453 kts 316°
2026-05-04 18:32 26.41346 50.90512 26102 ft 455 kts 316°
2026-05-04 18:32 26.43772 50.88240 26429 ft 456 kts 316°
2026-05-04 18:32 26.46243 50.85928 26764 ft 458 kts 316°
2026-05-04 18:33 26.48693 50.83631 27092 ft 460 kts 315°
2026-05-04 18:33 26.51144 50.81328 27415 ft 462 kts 315°
2026-05-04 18:33 26.53378 50.79229 27697 ft 463 kts 315°
2026-05-04 18:33 26.55851 50.76906 27994 ft 465 kts 315°
2026-05-04 18:34 26.58329 50.74576 28287 ft 466 kts 315°
2026-05-04 18:34 26.60813 50.72238 28593 ft 468 kts 315°
2026-05-04 18:34 26.63308 50.69889 28877 ft 470 kts 315°
2026-05-04 18:34 26.65809 50.67534 29156 ft 471 kts 315°
2026-05-04 18:35 26.68322 50.65169 29403 ft 473 kts 314°
2026-05-04 18:35 26.70844 50.62794 29671 ft 474 kts 314°
2026-05-04 18:35 26.73369 50.60414 29925 ft 476 kts 314°
2026-05-04 18:35 26.75903 50.58023 30141 ft 477 kts 314°
2026-05-04 18:36 26.78442 50.55627 30349 ft 478 kts 314°
2026-05-04 18:36 26.80987 50.53223 30573 ft 479 kts 314°
2026-05-04 18:36 26.83525 50.50826 30869 ft 478 kts 314°
2026-05-04 18:36 26.86061 50.48428 31147 ft 476 kts 314°
2026-05-04 18:37 26.88594 50.46031 31444 ft 475 kts 314°
2026-05-04 18:37 26.91156 50.43606 31683 ft 476 kts 314°
2026-05-04 18:37 26.93689 50.41212 31797 ft 479 kts 314°
2026-05-04 18:38 26.98791 50.36387 31795 ft 478 kts 314°
2026-05-04 18:38 27.03839 50.31601 31792 ft 476 kts 313°
2026-05-04 18:39 27.08904 50.26796 31792 ft 475 kts 313°
2026-05-04 18:39 27.13945 50.22007 31795 ft 475 kts 313°
2026-05-04 18:40 27.19175 50.17446 31807 ft 478 kts 317°
2026-05-04 18:40 27.24532 50.12997 31812 ft 478 kts 317°
2026-05-04 18:41 27.29893 50.08584 31807 ft 478 kts 317°
2026-05-04 18:41 27.35252 50.04146 31807 ft 478 kts 317°
2026-05-04 18:42 27.40484 49.99576 31808 ft 476 kts 315°
2026-05-04 18:42 27.45705 49.95008 31804 ft 476 kts 315°
2026-05-04 18:43 27.50920 49.90404 31806 ft 475 kts 315°
2026-05-04 18:43 27.56124 49.85826 31812 ft 475 kts 315°
2026-05-04 18:44 27.61326 49.81230 31807 ft 475 kts 315°
2026-05-04 18:44 27.66517 49.76647 31807 ft 474 kts 315°
2026-05-04 18:45 27.71714 49.72047 31803 ft 474 kts 315°
2026-05-04 18:45 27.76901 49.67454 31808 ft 474 kts 315°
2026-05-04 18:46 27.82114 49.62814 31787 ft 474 kts 314°
2026-05-04 18:46 27.87277 49.58198 31793 ft 473 kts 315°
2026-05-04 18:47 27.92442 49.53584 31790 ft 473 kts 314°
2026-05-04 18:47 27.97607 49.48959 31796 ft 474 kts 314°
2026-05-04 18:48 28.02767 49.44337 31808 ft 473 kts 314°
2026-05-04 18:48 28.07855 49.39700 31805 ft 472 kts 314°
2026-05-04 18:49 28.12976 49.35022 31807 ft 473 kts 314°
2026-05-04 18:49 28.18135 49.30314 31798 ft 474 kts 314°
2026-05-04 18:50 28.23263 49.25619 31799 ft 474 kts 314°
2026-05-04 18:50 28.28404 49.20912 31798 ft 475 kts 314°
2026-05-04 18:51 28.33543 49.16199 31805 ft 475 kts 314°
2026-05-04 18:51 28.38681 49.11483 31801 ft 475 kts 314°
2026-05-04 18:52 28.43253 49.07859 31794 ft 479 kts 319°
2026-05-04 18:52 28.48755 49.03612 31797 ft 478 kts 319°
2026-05-04 18:53 28.54280 48.99389 31796 ft 478 kts 319°
2026-05-04 18:53 28.59793 48.95147 31795 ft 479 kts 319°
2026-05-04 18:54 28.65349 48.90876 31797 ft 479 kts 319°
2026-05-04 18:54 28.70864 48.86627 31795 ft 479 kts 318°
2026-05-04 18:55 28.76386 48.82369 31794 ft 480 kts 318°
2026-05-04 18:55 28.84675 48.75991 31794 ft 479 kts 319°
2026-05-04 18:56 28.90194 48.71775 31789 ft 479 kts 318°
2026-05-04 18:56 28.95722 48.67526 31786 ft 477 kts 318°
2026-05-04 18:57 29.01246 48.63286 31786 ft 478 kts 318°
2026-05-04 18:57 29.06759 48.59043 31791 ft 477 kts 318°
2026-05-04 18:58 29.12252 48.54813 31776 ft 476 kts 318°
2026-05-04 18:58 29.17735 48.50583 31782 ft 476 kts 318°
2026-05-04 18:59 29.23227 48.46343 31784 ft 476 kts 318°
2026-05-04 18:59 29.28706 48.42106 31781 ft 475 kts 318°
2026-05-04 19:00 29.34217 48.37838 31780 ft 475 kts 318°
2026-05-04 19:00 29.39691 48.33594 31779 ft 474 kts 318°
2026-05-04 19:01 29.45235 48.29485 31786 ft 479 kts 323°
2026-05-04 19:01 29.51018 48.25679 31780 ft 479 kts 322°
2026-05-04 19:02 29.56795 48.21878 31775 ft 479 kts 322°
2026-05-04 19:02 29.62569 48.18076 31774 ft 477 kts 322°
2026-05-04 19:03 29.68329 48.14271 31771 ft 478 kts 322°
2026-05-04 19:03 29.74110 48.10456 31775 ft 479 kts 322°
2026-05-04 19:04 29.79882 48.06635 31777 ft 478 kts 322°
2026-05-04 19:04 29.85653 48.02812 31777 ft 479 kts 322°
2026-05-04 19:05 29.91431 47.98979 31776 ft 479 kts 322°
2026-05-04 19:05 29.97217 47.95135 31774 ft 481 kts 322°
2026-05-04 19:06 30.02679 47.90861 31781 ft 468 kts 310°
2026-05-04 19:06 30.07034 47.85394 31777 ft 462 kts 304°
2026-05-04 19:07 30.11248 47.79788 31778 ft 462 kts 304°
2026-05-04 19:07 30.15470 47.74142 31776 ft 461 kts 304°
2026-05-04 19:08 30.19666 47.68535 31775 ft 460 kts 304°
2026-05-04 19:08 30.23848 47.62931 31778 ft 461 kts 304°
2026-05-04 19:09 30.28036 47.57318 31775 ft 460 kts 304°
2026-05-04 19:09 30.32207 47.51715 31785 ft 459 kts 304°
2026-05-04 19:10 30.36376 47.46109 31771 ft 459 kts 304°
2026-05-04 19:10 30.40537 47.40503 31783 ft 459 kts 304°
2026-05-04 19:11 30.44704 47.34884 31786 ft 459 kts 303°
2026-05-04 19:11 30.48858 47.29274 31776 ft 459 kts 303°
2026-05-04 19:12 30.55091 47.20840 31791 ft 459 kts 304°
2026-05-04 19:13 30.60026 47.15738 31790 ft 472 kts 315°
2026-05-04 19:13 30.65219 47.11087 31789 ft 471 kts 315°
2026-05-04 19:14 30.70423 47.06434 31789 ft 472 kts 315°
2026-05-04 19:14 30.75621 47.01775 31788 ft 472 kts 315°
2026-05-04 19:15 30.80819 46.97109 31791 ft 472 kts 315°
2026-05-04 19:15 30.86032 46.92424 31788 ft 473 kts 315°
2026-05-04 19:16 30.91235 46.87742 31794 ft 473 kts 315°
2026-05-04 19:16 30.96449 46.83043 31793 ft 474 kts 315°
2026-05-04 19:17 31.01659 46.78341 31789 ft 474 kts 315°
2026-05-04 19:17 31.06876 46.73626 31778 ft 475 kts 315°
2026-05-04 19:18 31.12135 46.68867 31790 ft 475 kts 315°
2026-05-04 19:18 31.17339 46.64149 31796 ft 475 kts 315°
2026-05-04 19:19 31.21694 46.60196 31797 ft 476 kts 315°
2026-05-04 19:19 31.26923 46.55445 31798 ft 476 kts 315°
2026-05-04 19:20 31.32143 46.50693 31800 ft 476 kts 315°
2026-05-04 19:20 31.37367 46.45933 31801 ft 476 kts 315°
2026-05-04 19:21 31.42596 46.41160 31804 ft 476 kts 315°
2026-05-04 19:21 31.47812 46.36393 31807 ft 476 kts 315°
2026-05-04 19:22 31.53064 46.31585 31798 ft 475 kts 315°
2026-05-04 19:22 31.58266 46.26817 31812 ft 475 kts 315°
2026-05-04 19:23 31.63470 46.22039 31815 ft 475 kts 315°
2026-05-04 19:23 31.68664 46.17263 31821 ft 474 kts 315°
2026-05-04 19:24 31.73865 46.12474 31816 ft 475 kts 315°
2026-05-04 19:24 31.79059 46.07685 31823 ft 475 kts 315°
2026-05-04 19:25 31.84264 46.02878 31824 ft 476 kts 315°
2026-05-04 19:25 31.89468 45.98065 31827 ft 476 kts 314°
2026-05-04 19:26 31.94671 45.93246 31837 ft 477 kts 314°
2026-05-04 19:26 31.99881 45.88413 31838 ft 477 kts 314°
2026-05-04 19:27 32.05092 45.83573 31841 ft 477 kts 314°
2026-05-04 19:27 32.10301 45.78726 31843 ft 477 kts 314°
2026-05-04 19:28 32.15511 45.73872 31848 ft 478 kts 314°
2026-05-04 19:28 32.20753 45.68976 31873 ft 485 kts 314°
2026-05-04 19:28 32.23401 45.66505 32122 ft 485 kts 314°
2026-05-04 19:29 32.26043 45.64039 32415 ft 483 kts 314°
2026-05-04 19:29 32.28677 45.61575 32701 ft 482 kts 314°
2026-05-04 19:29 32.31299 45.59118 32985 ft 481 kts 314°
2026-05-04 19:29 32.33923 45.56658 33239 ft 481 kts 314°
2026-05-04 19:30 32.36543 45.54202 33497 ft 480 kts 313°
2026-05-04 19:30 32.39161 45.51746 33777 ft 480 kts 313°
2026-05-04 19:30 32.41781 45.49283 33845 ft 483 kts 313°
2026-05-04 19:31 32.47037 45.44344 33843 ft 480 kts 313°
2026-05-04 19:31 32.52255 45.39427 33842 ft 479 kts 313°
2026-05-04 19:32 32.57476 45.34503 33849 ft 480 kts 313°
2026-05-04 19:32 32.62704 45.29565 33860 ft 480 kts 313°
2026-05-04 19:33 32.67926 45.24625 33863 ft 480 kts 313°
2026-05-04 19:33 32.73148 45.19677 33868 ft 480 kts 313°
2026-05-04 19:34 32.78368 45.14724 33872 ft 480 kts 313°
2026-05-04 19:34 32.83573 45.09777 33877 ft 479 kts 313°
2026-05-04 19:35 32.88779 45.04820 33880 ft 479 kts 313°
2026-05-04 19:35 32.93986 44.99856 33884 ft 479 kts 313°
2026-05-04 19:36 32.99185 44.94892 33869 ft 479 kts 313°
2026-05-04 19:36 33.04387 44.89917 33885 ft 479 kts 313°
2026-05-04 19:37 33.09584 44.84939 33891 ft 479 kts 313°
2026-05-04 19:37 33.14743 44.79990 33895 ft 479 kts 312°
2026-05-04 19:38 33.20067 44.75158 33906 ft 488 kts 321°
2026-05-04 19:38 33.23111 44.73281 33907 ft 499 kts 329°
2026-05-04 19:38 33.26436 44.71938 33911 ft 510 kts 338°
2026-05-04 19:39 33.33322 44.69901 33896 ft 510 kts 338°
2026-05-04 19:39 33.40213 44.67878 33896 ft 510 kts 337°
2026-05-04 19:40 33.47146 44.65827 33904 ft 510 kts 337°
2026-05-04 19:40 33.54030 44.63793 33896 ft 510 kts 337°
2026-05-04 19:41 33.60922 44.61751 33899 ft 510 kts 337°
2026-05-04 19:41 33.67809 44.59708 33900 ft 510 kts 337°
2026-05-04 19:42 33.74696 44.57661 33892 ft 510 kts 337°
2026-05-04 19:42 33.81580 44.55612 33895 ft 510 kts 337°
2026-05-04 19:43 33.88467 44.53560 33893 ft 510 kts 337°
2026-05-04 19:43 33.95349 44.51503 33895 ft 510 kts 337°
2026-05-04 19:44 34.02192 44.49456 33891 ft 510 kts 337°
2026-05-04 19:44 34.09089 44.47390 33895 ft 511 kts 337°
2026-05-04 19:45 34.15986 44.45319 33897 ft 511 kts 337°
2026-05-04 19:45 34.22897 44.43241 33896 ft 512 kts 336°
2026-05-04 19:46 34.29809 44.41159 33900 ft 513 kts 336°
2026-05-04 19:46 34.36742 44.39068 33894 ft 514 kts 336°
2026-05-04 19:47 34.43682 44.36971 33901 ft 515 kts 336°
2026-05-04 19:47 34.50682 44.34852 33900 ft 515 kts 336°
2026-05-04 19:48 34.57638 44.32743 33904 ft 516 kts 336°
2026-05-04 19:48 34.64609 44.30625 33908 ft 516 kts 336°
2026-05-04 19:49 34.71555 44.28517 33913 ft 511 kts 336°
2026-05-04 19:49 34.78383 44.26430 33910 ft 507 kts 336°
2026-05-04 19:50 34.85343 44.24299 33916 ft 516 kts 336°
2026-05-04 19:50 34.92324 44.22173 33921 ft 517 kts 336°
2026-05-04 19:51 34.99302 44.20029 33937 ft 518 kts 336°
2026-05-04 19:51 35.06346 44.17870 33926 ft 518 kts 336°
2026-05-04 19:52 35.13344 44.15716 33923 ft 519 kts 336°
2026-05-04 19:52 35.20350 44.13559 33925 ft 520 kts 336°
2026-05-04 19:53 35.27414 44.11379 33927 ft 520 kts 336°
2026-05-04 19:53 35.33243 44.09578 33927 ft 520 kts 336°
2026-05-04 19:54 35.40300 44.07392 33925 ft 521 kts 336°
2026-05-04 19:54 35.47344 44.05207 33912 ft 522 kts 336°
2026-05-04 19:55 35.54381 44.03021 33925 ft 522 kts 335°
2026-05-04 19:55 35.61476 44.00812 33933 ft 523 kts 335°
2026-05-04 19:56 35.68531 43.98612 33927 ft 524 kts 335°
2026-05-04 19:56 35.75602 43.96403 33931 ft 524 kts 335°
2026-05-04 19:57 35.82677 43.94189 33926 ft 524 kts 335°
2026-05-04 19:57 35.89782 43.91961 33935 ft 523 kts 335°
2026-05-04 19:58 35.96895 43.89725 33937 ft 524 kts 335°
2026-05-04 19:58 36.03924 43.87514 33943 ft 523 kts 335°
2026-05-04 19:59 36.11000 43.85282 33935 ft 522 kts 335°
2026-05-04 19:59 36.18085 43.83044 33939 ft 521 kts 335°
2026-05-04 20:00 36.23849 43.81001 33963 ft 508 kts 327°
2026-05-04 20:00 36.28665 43.77860 33955 ft 490 kts 313°
2026-05-04 20:00 36.31314 43.75271 33954 ft 478 kts 305°
2026-05-04 20:01 36.33643 43.72373 33942 ft 473 kts 303°
2026-05-04 20:01 36.38244 43.66498 33945 ft 473 kts 303°
2026-05-04 20:02 36.42826 43.60596 33926 ft 473 kts 303°
2026-05-04 20:02 36.47389 43.54732 33940 ft 473 kts 303°
2026-05-04 20:03 36.51943 43.48857 33943 ft 473 kts 303°
2026-05-04 20:03 36.56517 43.42950 33951 ft 473 kts 302°
2026-05-04 20:04 36.61084 43.37039 33957 ft 472 kts 302°
2026-05-04 20:04 36.65618 43.31160 33963 ft 473 kts 302°
2026-05-04 20:05 36.70208 43.25200 33961 ft 473 kts 302°
2026-05-04 20:05 36.74749 43.19290 33960 ft 472 kts 302°
2026-05-04 20:06 36.79307 43.13350 33973 ft 472 kts 302°
2026-05-04 20:06 36.83883 43.07372 33979 ft 472 kts 302°
2026-05-04 20:07 36.88422 43.01433 33981 ft 473 kts 302°
2026-05-04 20:07 36.92981 42.95458 33973 ft 473 kts 302°
2026-05-04 20:08 36.97498 42.89523 33977 ft 474 kts 302°
2026-05-04 20:08 37.02070 42.83511 33978 ft 474 kts 302°
2026-05-04 20:09 37.06615 42.77520 33977 ft 474 kts 302°
2026-05-04 20:09 37.11147 42.71533 33981 ft 475 kts 302°
2026-05-04 20:10 37.15703 42.65507 33985 ft 475 kts 302°
2026-05-04 20:10 37.20257 42.59469 33979 ft 476 kts 302°
2026-05-04 20:11 37.24819 42.53411 33972 ft 476 kts 302°
2026-05-04 20:11 37.29372 42.47353 33977 ft 476 kts 302°
2026-05-04 20:12 37.33923 42.41286 33973 ft 476 kts 302°
2026-05-04 20:12 37.38456 42.35233 33961 ft 477 kts 302°
2026-05-04 20:13 37.42984 42.29174 33968 ft 476 kts 302°
2026-05-04 20:13 37.47527 42.23083 33963 ft 476 kts 302°
2026-05-04 20:14 37.52064 42.16989 33965 ft 476 kts 302°
2026-05-04 20:14 37.56581 42.10909 33961 ft 476 kts 302°
2026-05-04 20:15 37.61115 42.04797 33966 ft 476 kts 302°
2026-05-04 20:15 37.65663 41.98651 33984 ft 477 kts 302°
2026-05-04 20:16 37.70188 41.92526 33973 ft 480 kts 303°
2026-05-04 20:16 37.74763 41.86323 33971 ft 481 kts 302°
2026-05-04 20:17 37.78554 41.81174 33979 ft 480 kts 303°
2026-05-04 20:17 37.83851 41.73962 33977 ft 481 kts 303°
2026-05-04 20:18 37.87657 41.68772 33971 ft 482 kts 303°
2026-05-04 20:18 37.92239 41.62508 33971 ft 485 kts 303°
2026-05-04 20:19 37.96829 41.56228 33974 ft 485 kts 303°
2026-05-04 20:19 38.01389 41.49971 33961 ft 486 kts 303°
2026-05-04 20:20 38.05991 41.43647 33966 ft 487 kts 304°
2026-05-04 20:20 38.10584 41.37321 33957 ft 488 kts 304°
2026-05-04 20:21 38.15184 41.30973 33961 ft 488 kts 304°
2026-05-04 20:21 38.22092 41.21416 33961 ft 489 kts 304°
2026-05-04 20:22 38.26671 41.15067 33958 ft 490 kts 304°
2026-05-04 20:22 38.31278 41.08663 33964 ft 490 kts 305°
2026-05-04 20:23 38.35883 41.02250 33952 ft 491 kts 305°
2026-05-04 20:23 38.40500 40.95809 33963 ft 491 kts 305°
2026-05-04 20:24 38.45109 40.89363 33967 ft 492 kts 306°
2026-05-04 20:24 38.49726 40.82896 33968 ft 493 kts 306°
2026-05-04 20:25 38.54349 40.76404 33967 ft 494 kts 306°
2026-05-04 20:25 38.58949 40.69934 33964 ft 495 kts 306°
2026-05-04 20:26 38.63581 40.63403 33967 ft 496 kts 306°
2026-05-04 20:26 38.68220 40.56851 33963 ft 497 kts 307°
2026-05-04 20:27 38.72857 40.50285 33966 ft 497 kts 307°
2026-05-04 20:27 38.77505 40.43692 33962 ft 498 kts 307°
2026-05-04 20:28 38.82151 40.37089 33965 ft 498 kts 307°
2026-05-04 20:28 38.86782 40.30490 33961 ft 498 kts 307°
2026-05-04 20:29 38.91416 40.23875 33945 ft 498 kts 307°
2026-05-04 20:29 38.96049 40.17247 33944 ft 498 kts 307°
2026-05-04 20:30 39.00678 40.10610 33945 ft 498 kts 308°
2026-05-04 20:30 39.05268 40.04017 33948 ft 497 kts 308°
2026-05-04 20:31 39.09886 39.97369 33957 ft 497 kts 308°
2026-05-04 20:31 39.14491 39.90723 33953 ft 497 kts 308°
2026-05-04 20:32 39.19100 39.84059 33947 ft 498 kts 308°
2026-05-04 20:32 39.23703 39.77391 33957 ft 498 kts 308°
2026-05-04 20:33 39.28305 39.70708 33953 ft 498 kts 308°
2026-05-04 20:33 39.32883 39.64047 33949 ft 499 kts 308°
2026-05-04 20:34 39.37492 39.57325 33952 ft 499 kts 308°
2026-05-04 20:34 39.42110 39.50576 33941 ft 500 kts 308°
2026-05-04 20:35 39.46720 39.43823 33934 ft 500 kts 308°
2026-05-04 20:35 39.51328 39.37061 33927 ft 501 kts 308°
2026-05-04 20:36 39.55939 39.30278 33925 ft 502 kts 308°
2026-05-04 20:36 39.60550 39.23480 33924 ft 502 kts 308°
2026-05-04 20:37 39.65130 39.16713 33911 ft 503 kts 308°
2026-05-04 20:37 39.69742 39.09884 33903 ft 503 kts 308°
2026-05-04 20:38 39.74355 39.03039 33888 ft 503 kts 308°
2026-05-04 20:38 39.78960 38.96191 33882 ft 503 kts 308°
2026-05-04 20:39 39.83568 38.89322 33873 ft 504 kts 308°
2026-05-04 20:39 39.88176 38.82439 33877 ft 504 kts 308°
2026-05-04 20:40 39.92777 38.75550 33882 ft 504 kts 308°
2026-05-04 20:40 39.97379 38.68645 33868 ft 504 kts 308°
2026-05-04 20:41 40.01977 38.61730 33872 ft 503 kts 308°
2026-05-04 20:41 40.06563 38.54817 33881 ft 504 kts 308°
2026-05-04 20:42 40.11124 38.47927 33877 ft 505 kts 308°
2026-05-04 20:42 40.15715 38.40975 33872 ft 506 kts 308°
2026-05-04 20:43 40.20321 38.33986 33879 ft 506 kts 308°
2026-05-04 20:43 40.24922 38.26988 33874 ft 507 kts 308°
2026-05-04 20:44 40.29525 38.19972 33877 ft 507 kts 308°
2026-05-04 20:44 40.33494 38.12516 33894 ft 501 kts 290°
2026-05-04 20:45 40.36096 38.04052 33877 ft 501 kts 289°
2026-05-04 20:45 40.38641 37.95538 33873 ft 500 kts 289°
2026-05-04 20:46 40.41195 37.87058 33879 ft 500 kts 289°
2026-05-04 20:46 40.43731 37.78555 33887 ft 500 kts 289°
2026-05-04 20:47 40.46269 37.70052 33891 ft 500 kts 289°
2026-05-04 20:47 40.48799 37.61533 33895 ft 500 kts 289°
2026-05-04 20:48 40.51326 37.53012 33894 ft 500 kts 289°
2026-05-04 20:48 40.53846 37.44478 33886 ft 501 kts 289°
2026-05-04 20:49 40.56347 37.35988 33888 ft 502 kts 289°
2026-05-04 20:49 40.58861 37.27419 33895 ft 502 kts 289°
2026-05-04 20:50 40.61372 37.18839 33899 ft 503 kts 290°
2026-05-04 20:50 40.63881 37.10234 33907 ft 502 kts 290°
2026-05-04 20:51 40.66374 37.01655 33901 ft 500 kts 290°
2026-05-04 20:51 40.68857 36.93084 33909 ft 499 kts 290°
2026-05-04 20:52 40.71327 36.84528 33905 ft 500 kts 290°
2026-05-04 20:52 40.73794 36.75957 33910 ft 500 kts 290°
2026-05-04 20:53 40.76238 36.67437 33908 ft 500 kts 290°
2026-05-04 20:53 40.78696 36.58841 33915 ft 501 kts 290°
2026-05-04 20:54 40.81152 36.50224 33913 ft 502 kts 290°
2026-05-04 20:54 40.83602 36.41598 33915 ft 502 kts 290°
2026-05-04 20:55 40.86048 36.32958 33914 ft 502 kts 290°
2026-05-04 20:55 40.88492 36.24295 33904 ft 503 kts 290°
2026-05-04 20:56 40.90934 36.15611 33906 ft 504 kts 290°
2026-05-04 20:56 40.93356 36.06968 33905 ft 504 kts 290°
2026-05-04 20:57 40.95787 35.98266 33901 ft 504 kts 290°
2026-05-04 20:57 40.98212 35.89554 33895 ft 504 kts 290°
2026-05-04 20:58 41.00629 35.80842 33883 ft 504 kts 290°
2026-05-04 20:58 41.03036 35.72145 33879 ft 503 kts 290°
2026-05-04 20:59 41.05436 35.63437 33890 ft 502 kts 290°
2026-05-04 20:59 41.07808 35.54805 33890 ft 502 kts 290°
2026-05-04 21:00 41.10198 35.46077 33896 ft 502 kts 290°
2026-05-04 21:00 41.12571 35.37380 33896 ft 501 kts 290°
2026-05-04 21:01 41.14938 35.28672 33887 ft 502 kts 290°
2026-05-04 21:01 41.17300 35.19956 33888 ft 502 kts 290°
2026-05-04 21:02 41.19640 35.11289 33895 ft 503 kts 290°
2026-05-04 21:02 41.22002 35.02510 33903 ft 503 kts 290°
2026-05-04 21:03 41.24352 34.93745 33901 ft 504 kts 290°
2026-05-04 21:03 41.26318 34.86388 33901 ft 503 kts 290°
2026-05-04 21:04 41.28646 34.77665 33902 ft 503 kts 290°
2026-05-04 21:04 41.30983 34.68884 33908 ft 504 kts 290°
2026-05-04 21:05 41.33312 34.60094 33908 ft 504 kts 290°
2026-05-04 21:05 41.35639 34.51283 33915 ft 505 kts 290°
2026-05-04 21:06 41.37958 34.42469 33913 ft 504 kts 291°
2026-05-04 21:06 41.40266 34.33667 33922 ft 503 kts 291°
2026-05-04 21:07 41.42552 34.24847 33941 ft 503 kts 291°
2026-05-04 21:07 41.44826 34.16037 33944 ft 502 kts 291°
2026-05-04 21:08 41.47085 34.07279 33939 ft 502 kts 291°
2026-05-04 21:08 41.49359 33.98450 33948 ft 503 kts 292°
2026-05-04 21:09 41.51624 33.89610 33951 ft 503 kts 292°
2026-05-04 21:09 41.53886 33.80756 33955 ft 503 kts 292°
2026-05-04 21:10 41.56137 33.71911 33957 ft 503 kts 292°
2026-05-04 21:10 41.58385 33.63046 33961 ft 504 kts 292°
2026-05-04 21:11 41.60625 33.54182 33966 ft 503 kts 293°
2026-05-04 21:11 41.62864 33.45305 33966 ft 504 kts 292°
2026-05-04 21:12 41.65087 33.36419 33965 ft 504 kts 293°
2026-05-04 21:12 41.67298 33.27573 33968 ft 504 kts 293°
2026-05-04 21:13 41.69515 33.18656 33954 ft 504 kts 293°
2026-05-04 21:13 41.71725 33.09739 33943 ft 504 kts 293°
2026-05-04 21:14 41.73920 33.00847 33953 ft 502 kts 293°
2026-05-04 21:14 41.76108 32.91965 33945 ft 502 kts 293°
2026-05-04 21:15 41.78287 32.83072 33938 ft 501 kts 293°
2026-05-04 21:15 41.80444 32.74242 33931 ft 501 kts 293°
2026-05-04 21:16 41.82600 32.65367 33922 ft 501 kts 293°
2026-05-04 21:16 41.84748 32.56494 33925 ft 500 kts 293°
2026-05-04 21:17 41.86887 32.47625 33921 ft 499 kts 293°
2026-05-04 21:17 41.89006 32.38758 33924 ft 498 kts 292°
2026-05-04 21:18 41.91111 32.29956 33917 ft 498 kts 293°
2026-05-04 21:18 41.93245 32.21120 33914 ft 497 kts 293°
2026-05-04 21:19 41.95332 32.12269 33915 ft 496 kts 293°
2026-05-04 21:19 41.97427 32.03437 33923 ft 496 kts 293°
2026-05-04 21:20 41.99505 31.94599 33917 ft 495 kts 293°
2026-05-04 21:20 42.01579 31.85765 33921 ft 494 kts 293°
2026-05-04 21:21 42.03633 31.77000 33912 ft 494 kts 293°
2026-05-04 21:21 42.05688 31.68188 33918 ft 493 kts 293°
2026-05-04 21:22 42.07738 31.59368 33924 ft 493 kts 293°
2026-05-04 21:22 42.09775 31.50565 33923 ft 493 kts 293°
2026-05-04 21:23 42.11809 31.41746 33929 ft 492 kts 293°
2026-05-04 21:23 42.13831 31.32938 33929 ft 492 kts 293°
2026-05-04 21:24 42.15846 31.24125 33931 ft 492 kts 293°
2026-05-04 21:24 42.17854 31.15309 33938 ft 491 kts 293°
2026-05-04 21:25 42.19852 31.06499 33943 ft 491 kts 293°
2026-05-04 21:25 42.21841 30.97698 33958 ft 491 kts 293°
2026-05-04 21:26 42.23823 30.88887 33953 ft 490 kts 293°
2026-05-04 21:26 42.25797 30.80081 33955 ft 490 kts 293°
2026-05-04 21:27 42.27107 30.74219 33958 ft 490 kts 292°
2026-05-04 21:27 42.28802 30.66607 33959 ft 490 kts 292°
2026-05-04 21:28 42.30425 30.59293 33965 ft 490 kts 292°
2026-05-04 21:28 42.31746 30.53323 33967 ft 492 kts 292°
2026-05-04 21:29 42.33710 30.44419 34245 ft 495 kts 292°
2026-05-04 21:29 42.34688 30.39959 34466 ft 494 kts 292°
2026-05-04 21:29 42.35665 30.35508 34690 ft 494 kts 291°
2026-05-04 21:30 42.36640 30.31059 34910 ft 493 kts 291°
2026-05-04 21:30 42.37611 30.26613 35139 ft 493 kts 291°
2026-05-04 21:30 42.38579 30.22167 35367 ft 492 kts 291°
2026-05-04 21:30 42.39545 30.17727 35598 ft 492 kts 291°
2026-05-04 21:31 42.41483 30.08790 35995 ft 491 kts 291°
2026-05-04 21:31 42.42446 30.04337 35989 ft 495 kts 290°
2026-05-04 21:32 42.44376 29.95369 35994 ft 490 kts 290°
2026-05-04 21:32 42.46702 29.86736 36014 ft 481 kts 304°
2026-05-04 21:33 42.50587 29.79468 36014 ft 475 kts 312°
2026-05-04 21:33 42.54675 29.72427 36018 ft 475 kts 312°
2026-05-04 21:34 42.58793 29.65351 36020 ft 474 kts 312°
2026-05-04 21:34 42.62867 29.58312 36020 ft 474 kts 312°
2026-05-04 21:35 42.66938 29.51274 36020 ft 474 kts 312°
2026-05-04 21:35 42.70344 29.45368 36022 ft 474 kts 311°
2026-05-04 21:36 42.75087 29.37127 36015 ft 473 kts 311°
2026-05-04 21:36 42.78484 29.31209 36022 ft 473 kts 311°
2026-05-04 21:37 42.82540 29.24129 36025 ft 474 kts 311°
2026-05-04 21:37 42.86621 29.16987 36025 ft 475 kts 311°
2026-05-04 21:38 42.90676 29.09875 36031 ft 476 kts 311°
2026-05-04 21:38 42.94759 29.02696 36035 ft 475 kts 311°
2026-05-04 21:39 42.98838 28.95505 36038 ft 475 kts 311°
2026-05-04 21:39 43.02912 28.88308 36037 ft 475 kts 310°
2026-05-04 21:40 43.06944 28.81166 36035 ft 476 kts 310°
2026-05-04 21:40 43.10979 28.74002 36043 ft 475 kts 310°
2026-05-04 21:41 43.15032 28.66789 36041 ft 474 kts 310°
2026-05-04 21:41 43.19079 28.59568 36040 ft 474 kts 310°
2026-05-04 21:42 43.23116 28.52347 36047 ft 474 kts 310°
2026-05-04 21:42 43.27124 28.45162 36046 ft 474 kts 310°
2026-05-04 21:43 43.31158 28.37911 36052 ft 474 kts 310°
2026-05-04 21:43 43.35156 28.30708 36067 ft 474 kts 309°
2026-05-04 21:44 43.39216 28.23375 36069 ft 475 kts 309°
2026-05-04 21:44 43.43216 28.16131 36070 ft 474 kts 309°
2026-05-04 21:45 43.47229 28.08848 36070 ft 474 kts 309°
2026-05-04 21:45 43.51237 28.01553 36072 ft 474 kts 309°
2026-05-04 21:46 43.55268 27.94200 36071 ft 474 kts 309°
2026-05-04 21:46 43.59242 27.86933 36073 ft 475 kts 309°
2026-05-04 21:47 43.63857 27.80433 36086 ft 472 kts 321°
2026-05-04 21:47 43.68915 27.74549 36089 ft 473 kts 321°
2026-05-04 21:48 43.73903 27.68716 36086 ft 473 kts 321°
2026-05-04 21:48 43.78105 27.63794 36082 ft 473 kts 321°
2026-05-04 21:49 43.83130 27.57901 36082 ft 473 kts 321°
2026-05-04 21:49 43.88175 27.51965 36077 ft 473 kts 321°
2026-05-04 21:50 43.93192 27.46052 36073 ft 474 kts 321°
2026-05-04 21:50 43.98243 27.40082 36069 ft 474 kts 321°
2026-05-04 21:51 44.03266 27.34135 36069 ft 474 kts 321°
2026-05-04 21:51 44.08282 27.28180 36064 ft 474 kts 321°
2026-05-04 21:52 44.13333 27.22171 36063 ft 474 kts 320°
2026-05-04 21:52 44.18381 27.16150 36054 ft 474 kts 320°
2026-05-04 21:53 44.23389 27.10164 36052 ft 475 kts 320°
2026-05-04 21:53 44.28437 27.04116 36054 ft 476 kts 320°
2026-05-04 21:54 44.33462 26.98080 36053 ft 477 kts 320°
2026-05-04 21:54 44.38521 26.91990 36052 ft 476 kts 320°
2026-05-04 21:55 44.43536 26.85940 36051 ft 477 kts 320°
2026-05-04 21:55 44.48564 26.79858 36052 ft 478 kts 319°
2026-05-04 21:56 44.53632 26.73714 36051 ft 478 kts 319°
2026-05-04 21:56 44.58647 26.67619 36050 ft 478 kts 319°
2026-05-04 21:57 44.63663 26.61508 36049 ft 477 kts 319°
2026-05-04 21:57 44.68672 26.55393 36048 ft 477 kts 319°
2026-05-04 21:58 44.73675 26.49269 36047 ft 477 kts 319°
2026-05-04 21:58 44.78686 26.43121 36050 ft 478 kts 319°
2026-05-04 21:59 44.83725 26.36925 36053 ft 479 kts 319°
2026-05-04 21:59 44.88757 26.30721 36057 ft 477 kts 319°
2026-05-04 22:00 44.93778 26.24515 36056 ft 475 kts 319°
2026-05-04 22:00 44.98744 26.18364 36057 ft 475 kts 319°
2026-05-04 22:01 45.03707 26.12201 36063 ft 475 kts 319°
2026-05-04 22:01 45.08664 26.06031 36078 ft 472 kts 319°
2026-05-04 22:02 45.13564 25.99917 36064 ft 472 kts 319°
2026-05-04 22:02 45.18550 25.93680 36083 ft 476 kts 319°
2026-05-04 22:03 45.23501 25.87473 36088 ft 476 kts 319°
2026-05-04 22:03 45.28478 25.81218 36088 ft 477 kts 319°
2026-05-04 22:04 45.33504 25.74885 36073 ft 476 kts 320°
2026-05-04 22:04 45.38449 25.68639 36091 ft 475 kts 320°
2026-05-04 22:05 45.42538 25.63464 36096 ft 476 kts 320°
2026-05-04 22:05 45.47513 25.57153 36088 ft 476 kts 320°
2026-05-04 22:06 45.52454 25.50870 36082 ft 476 kts 320°
2026-05-04 22:06 45.57419 25.44540 36080 ft 475 kts 320°
2026-05-04 22:07 45.62346 25.38242 36076 ft 475 kts 320°
2026-05-04 22:07 45.67244 25.31966 36079 ft 475 kts 320°
2026-05-04 22:08 45.72199 25.25603 36076 ft 476 kts 320°
2026-05-04 22:08 45.77149 25.19229 36082 ft 476 kts 320°
2026-05-04 22:09 45.82069 25.12879 36079 ft 475 kts 320°
2026-05-04 22:09 45.86955 25.06557 36079 ft 475 kts 320°
2026-05-04 22:10 45.91952 25.00075 36076 ft 476 kts 320°
2026-05-04 22:10 45.96826 24.93735 36083 ft 476 kts 320°
2026-05-04 22:11 46.01777 24.87282 36074 ft 476 kts 320°
2026-05-04 22:11 46.06680 24.80873 36076 ft 476 kts 320°
2026-05-04 22:12 46.11578 24.74456 36071 ft 476 kts 320°
2026-05-04 22:12 46.16466 24.68035 36075 ft 476 kts 320°
2026-05-04 22:13 46.21352 24.61600 36070 ft 475 kts 320°
2026-05-04 22:13 46.26219 24.55175 36068 ft 475 kts 320°
2026-05-04 22:14 46.31084 24.48737 36071 ft 475 kts 320°
2026-05-04 22:14 46.35956 24.42273 36072 ft 475 kts 320°
2026-05-04 22:15 46.40821 24.35800 36071 ft 475 kts 320°
2026-05-04 22:15 46.45689 24.29309 36074 ft 476 kts 320°
2026-05-04 22:16 46.50563 24.22792 36076 ft 476 kts 320°
2026-05-04 22:16 46.55427 24.16272 36071 ft 476 kts 319°
2026-05-04 22:17 46.60322 24.09693 36075 ft 476 kts 319°
2026-05-04 22:17 46.65209 24.03110 36087 ft 476 kts 319°
2026-05-04 22:18 46.70064 23.96551 36088 ft 476 kts 319°
2026-05-04 22:18 46.74953 23.89931 36098 ft 477 kts 319°
2026-05-04 22:19 46.79809 23.83337 36093 ft 477 kts 319°
2026-05-04 22:19 46.84657 23.76737 36099 ft 477 kts 319°
2026-05-04 22:20 46.89469 23.70170 36101 ft 476 kts 319°
2026-05-04 22:20 46.94340 23.63504 36092 ft 476 kts 319°
2026-05-04 22:21 46.99097 23.56978 36096 ft 476 kts 319°
2026-05-04 22:21 47.03978 23.50264 36099 ft 476 kts 319°
2026-05-04 22:22 47.08840 23.43558 36096 ft 477 kts 319°
2026-05-04 22:22 47.13662 23.36891 36092 ft 476 kts 319°
2026-05-04 22:23 47.18474 23.30221 36093 ft 476 kts 319°
2026-05-04 22:23 47.23275 23.23546 36093 ft 475 kts 319°
2026-05-04 22:24 47.28114 23.16803 36092 ft 475 kts 319°
2026-05-04 22:24 47.32875 23.10150 36091 ft 475 kts 319°
2026-05-04 22:25 47.37658 23.03450 36083 ft 475 kts 319°
2026-05-04 22:25 47.42474 22.96684 36081 ft 474 kts 319°
2026-05-04 22:26 47.47244 22.89967 36079 ft 474 kts 319°
2026-05-04 22:26 47.52013 22.83233 36073 ft 474 kts 319°
2026-05-04 22:27 47.56779 22.76485 36068 ft 474 kts 318°
2026-05-04 22:27 47.61536 22.69730 36069 ft 474 kts 318°
2026-05-04 22:28 47.66295 22.62957 36070 ft 474 kts 318°
2026-05-04 22:28 47.71047 22.56175 36067 ft 474 kts 318°
2026-05-04 22:29 47.74992 22.50530 36064 ft 474 kts 318°
2026-05-04 22:29 47.79851 22.43932 36109 ft 470 kts 327°
2026-05-04 22:30 47.85414 22.38816 36067 ft 471 kts 330°
2026-05-04 22:30 47.91023 22.33785 36072 ft 471 kts 330°
2026-05-04 22:31 47.96625 22.28730 36065 ft 471 kts 330°
2026-05-04 22:31 48.02237 22.23663 36066 ft 471 kts 330°
2026-05-04 22:32 48.07842 22.18584 36068 ft 472 kts 330°
2026-05-04 22:32 48.13464 22.13479 36066 ft 472 kts 330°
2026-05-04 22:33 48.19071 22.08374 36060 ft 472 kts 330°
2026-05-04 22:33 48.24680 22.03253 36055 ft 472 kts 330°
2026-05-04 22:34 48.30277 21.98130 36050 ft 471 kts 330°
2026-05-04 22:34 48.35855 21.93012 36052 ft 470 kts 328°
2026-05-04 22:35 48.41445 21.87867 36045 ft 471 kts 328°
2026-05-04 22:35 48.45626 21.84012 36042 ft 471 kts 328°
2026-05-04 22:36 48.51231 21.78828 36040 ft 471 kts 328°
2026-05-04 22:36 48.56311 21.74120 36039 ft 472 kts 328°
2026-05-04 22:37 48.61909 21.68919 36038 ft 472 kts 328°
2026-05-04 22:37 48.67502 21.63709 36035 ft 472 kts 328°
2026-05-04 22:38 48.73094 21.58485 36039 ft 472 kts 328°
2026-05-04 22:38 48.78689 21.53245 36038 ft 472 kts 328°
2026-05-04 22:39 48.84271 21.48004 36043 ft 472 kts 328°
2026-05-04 22:39 48.89839 21.42761 36042 ft 471 kts 327°
2026-05-04 22:40 48.95322 21.37585 36038 ft 471 kts 327°
2026-05-04 22:40 49.00869 21.32335 36041 ft 471 kts 327°
2026-05-04 22:41 49.06473 21.27016 36038 ft 472 kts 327°
2026-05-04 22:41 49.12016 21.21742 36037 ft 472 kts 327°
2026-05-04 22:42 49.17593 21.16421 36039 ft 473 kts 327°
2026-05-04 22:42 49.23174 21.11081 36043 ft 473 kts 327°
2026-05-04 22:43 49.28741 21.05741 36041 ft 473 kts 327°
2026-05-04 22:43 49.34218 21.00158 36060 ft 470 kts 317°
2026-05-04 22:44 49.39027 20.93318 36044 ft 472 kts 316°
2026-05-04 22:44 49.43816 20.86393 36044 ft 472 kts 316°
2026-05-04 22:45 49.48619 20.79482 36050 ft 472 kts 316°
2026-05-04 22:45 49.55798 20.69075 36038 ft 473 kts 316°
2026-05-04 22:46 49.60579 20.62127 36036 ft 472 kts 316°
2026-05-04 22:46 49.65359 20.55157 36039 ft 473 kts 316°
2026-05-04 22:47 49.70112 20.48210 36035 ft 473 kts 316°
2026-05-04 22:47 49.74678 20.40956 36051 ft 470 kts 305°
2026-05-04 22:48 49.78009 20.32205 36032 ft 471 kts 299°
2026-05-04 22:48 49.81190 20.23345 36030 ft 470 kts 299°
2026-05-04 22:49 49.84366 20.14481 36020 ft 471 kts 299°
2026-05-04 22:49 49.87517 20.05655 36015 ft 471 kts 298°
2026-05-04 22:50 49.90675 19.96777 36007 ft 470 kts 298°
2026-05-04 22:50 49.93832 19.87873 36002 ft 470 kts 298°
2026-05-04 22:51 49.96955 19.79033 36003 ft 470 kts 298°
2026-05-04 22:51 50.00115 19.70057 36008 ft 470 kts 298°
2026-05-04 22:52 50.03247 19.61132 36002 ft 469 kts 298°
2026-05-04 22:52 50.06363 19.52219 35998 ft 468 kts 298°
2026-05-04 22:53 50.09449 19.43361 36002 ft 468 kts 298°
2026-05-04 22:53 50.12550 19.34429 35995 ft 469 kts 298°
2026-05-04 22:54 50.15645 19.25483 35994 ft 469 kts 298°
2026-05-04 22:54 50.18734 19.16525 35994 ft 468 kts 297°
2026-05-04 22:55 50.21812 19.07565 35992 ft 468 kts 297°
2026-05-04 22:55 50.24886 18.98586 35996 ft 468 kts 297°
2026-05-04 22:56 50.27949 18.89606 35998 ft 467 kts 297°
2026-05-04 22:56 50.31002 18.80624 35992 ft 467 kts 297°
2026-05-04 22:57 50.34043 18.71646 35986 ft 466 kts 297°
2026-05-04 22:57 50.37073 18.62670 35980 ft 467 kts 297°
2026-05-04 22:58 50.40079 18.53732 35962 ft 466 kts 297°
2026-05-04 22:58 50.43096 18.44729 35960 ft 466 kts 296°
2026-05-04 22:59 50.46111 18.35699 35957 ft 467 kts 296°
2026-05-04 22:59 50.49112 18.26679 35955 ft 466 kts 296°
2026-05-04 23:00 50.52108 18.17643 35958 ft 466 kts 296°
2026-05-04 23:00 50.55102 18.08579 35951 ft 467 kts 296°
2026-05-04 23:01 50.58088 17.99509 35949 ft 466 kts 296°
2026-05-04 23:01 50.61039 17.90509 35947 ft 465 kts 296°
2026-05-04 23:02 50.64017 17.81397 35954 ft 465 kts 296°
2026-05-04 23:02 50.66957 17.72367 35952 ft 466 kts 296°
2026-05-04 23:03 50.69906 17.63275 35955 ft 466 kts 295°
2026-05-04 23:03 50.72845 17.54180 35952 ft 465 kts 295°
2026-05-04 23:04 50.75777 17.45075 35947 ft 465 kts 295°
2026-05-04 23:04 50.78701 17.35964 35949 ft 465 kts 295°
2026-05-04 23:05 50.81614 17.26852 35949 ft 464 kts 295°
2026-05-04 23:05 50.84513 17.17748 35945 ft 463 kts 295°
2026-05-04 23:06 50.87409 17.08621 35952 ft 464 kts 295°
2026-05-04 23:06 50.90297 16.99487 35947 ft 463 kts 295°
2026-05-04 23:07 50.93175 16.90351 35949 ft 463 kts 294°
2026-05-04 23:07 50.96048 16.81195 35948 ft 463 kts 294°
2026-05-04 23:08 50.98899 16.72074 35951 ft 463 kts 294°
2026-05-04 23:08 51.01757 16.62898 35947 ft 463 kts 294°
2026-05-04 23:09 51.04611 16.53703 35947 ft 464 kts 294°
2026-05-04 23:09 51.07454 16.44507 35950 ft 463 kts 294°
2026-05-04 23:10 51.10288 16.35303 35949 ft 463 kts 294°
2026-05-04 23:10 51.13114 16.26092 35949 ft 463 kts 294°
2026-05-04 23:11 51.15933 16.16869 35950 ft 463 kts 294°
2026-05-04 23:11 51.18742 16.07646 35951 ft 462 kts 294°
2026-05-04 23:12 51.21065 15.99988 35954 ft 461 kts 294°
2026-05-04 23:12 51.23856 15.90758 35949 ft 461 kts 293°
2026-05-04 23:13 51.26638 15.81522 35949 ft 462 kts 293°
2026-05-04 23:13 51.29414 15.72274 35947 ft 461 kts 293°
2026-05-04 23:14 51.32179 15.63022 35951 ft 461 kts 293°
2026-05-04 23:14 51.34939 15.53753 35948 ft 461 kts 293°
2026-05-04 23:15 51.37686 15.44494 35950 ft 461 kts 292°
2026-05-04 23:15 51.40426 15.35221 35952 ft 460 kts 292°
2026-05-04 23:16 51.43139 15.26005 35952 ft 461 kts 292°
2026-05-04 23:16 51.45891 15.16619 35950 ft 462 kts 292°
2026-05-04 23:17 51.48600 15.07344 35951 ft 462 kts 292°
2026-05-04 23:17 51.51334 14.97947 35950 ft 462 kts 292°
2026-05-04 23:18 51.54031 14.88639 35947 ft 462 kts 292°
2026-05-04 23:18 51.56733 14.79276 35951 ft 463 kts 292°
2026-05-04 23:19 51.59315 14.69794 35944 ft 462 kts 289°
2026-05-04 23:19 51.61766 14.60218 35953 ft 463 kts 289°
2026-05-04 23:20 51.64194 14.50583 35952 ft 463 kts 289°
2026-05-04 23:20 51.66618 14.40960 35949 ft 464 kts 289°
2026-05-04 23:21 51.69033 14.31325 35952 ft 464 kts 289°
2026-05-04 23:21 51.71439 14.21681 35938 ft 463 kts 289°
2026-05-04 23:22 51.73836 14.12033 35950 ft 463 kts 289°
2026-05-04 23:22 51.76227 14.02368 35950 ft 463 kts 289°
2026-05-04 23:23 51.78607 13.92705 35955 ft 463 kts 289°
2026-05-04 23:23 51.80965 13.83085 35958 ft 463 kts 289°
2026-05-04 23:24 51.83344 13.73340 35953 ft 463 kts 289°
2026-05-04 23:24 51.85690 13.63691 35955 ft 464 kts 288°
2026-05-04 23:25 51.88247 13.54119 35944 ft 465 kts 292°
2026-05-04 23:25 51.90959 13.44612 35947 ft 465 kts 291°
2026-05-04 23:26 51.93671 13.35106 35946 ft 465 kts 291°
2026-05-04 23:26 51.96374 13.25581 35948 ft 465 kts 291°
2026-05-04 23:27 51.99069 13.16048 35948 ft 464 kts 291°
2026-05-04 23:27 52.01758 13.06498 35945 ft 464 kts 291°
2026-05-04 23:28 52.04434 12.96955 35949 ft 463 kts 291°
2026-05-04 23:28 52.07084 12.87464 35954 ft 464 kts 291°
2026-05-04 23:29 52.09745 12.77899 35952 ft 464 kts 291°
2026-05-04 23:29 52.12394 12.68335 35952 ft 463 kts 291°
2026-05-04 23:30 52.15034 12.58763 35962 ft 462 kts 291°
2026-05-04 23:30 52.17664 12.49191 35960 ft 463 kts 290°
2026-05-04 23:31 52.20288 12.39600 35957 ft 463 kts 290°
2026-05-04 23:31 52.22906 12.29991 35963 ft 463 kts 290°
2026-05-04 23:32 52.25517 12.20367 35965 ft 463 kts 290°
2026-05-04 23:32 52.28103 12.10794 35963 ft 464 kts 290°
2026-05-04 23:33 52.30696 12.01159 35963 ft 464 kts 290°
2026-05-04 23:33 52.33292 11.91469 35967 ft 465 kts 290°
2026-05-04 23:34 52.35879 11.81775 35968 ft 465 kts 290°
2026-05-04 23:34 52.38455 11.72077 35967 ft 464 kts 290°
2026-05-04 23:35 52.41023 11.62369 35968 ft 464 kts 290°
2026-05-04 23:35 52.43583 11.52653 35971 ft 464 kts 290°
2026-05-04 23:36 52.46134 11.42925 35970 ft 464 kts 290°
2026-05-04 23:36 52.48655 11.33272 35971 ft 463 kts 290°
2026-05-04 23:37 52.51185 11.23545 35964 ft 463 kts 289°
2026-05-04 23:37 52.53691 11.13819 35969 ft 461 kts 287°
2026-05-04 23:38 52.54936 11.03620 35978 ft 455 kts 271°
2026-05-04 23:38 52.55344 10.93138 35965 ft 456 kts 271°
2026-05-04 23:39 52.55721 10.82806 35971 ft 455 kts 271°
2026-05-04 23:39 52.56099 10.72436 35973 ft 455 kts 271°
2026-05-04 23:40 52.56466 10.62021 35968 ft 455 kts 271°
2026-05-04 23:40 52.56824 10.51637 35973 ft 455 kts 271°
2026-05-04 23:41 52.57172 10.41253 35971 ft 455 kts 270°
2026-05-04 23:41 52.57513 10.30857 35973 ft 455 kts 270°
2026-05-04 23:42 52.57844 10.20453 35975 ft 456 kts 270°
2026-05-04 23:42 52.58166 10.10044 35980 ft 456 kts 270°
2026-05-04 23:43 52.58478 9.99642 35974 ft 456 kts 270°
2026-05-04 23:43 52.58782 9.89232 35972 ft 456 kts 270°
2026-05-04 23:44 52.59076 9.78807 35971 ft 456 kts 270°
2026-05-04 23:44 52.59361 9.68425 35976 ft 457 kts 270°
2026-05-04 23:45 52.59638 9.57991 35970 ft 457 kts 270°
2026-05-04 23:45 52.59905 9.47556 35976 ft 457 kts 269°
2026-05-04 23:46 52.60164 9.37109 35974 ft 456 kts 269°
2026-05-04 23:46 52.60413 9.26693 35975 ft 456 kts 269°
2026-05-04 23:47 52.60652 9.16264 35974 ft 456 kts 269°
2026-05-04 23:47 52.60884 9.05813 35971 ft 457 kts 269°
2026-05-04 23:48 52.61107 8.95317 35968 ft 458 kts 269°
2026-05-04 23:48 52.61320 8.84858 35969 ft 458 kts 269°
2026-05-04 23:49 52.61524 8.74359 35978 ft 459 kts 269°
2026-05-04 23:49 52.61719 8.63860 35979 ft 459 kts 269°
2026-05-04 23:50 52.61905 8.53345 35980 ft 460 kts 268°
2026-05-04 23:50 52.62081 8.42882 35987 ft 460 kts 268°
2026-05-04 23:51 52.62249 8.32326 35985 ft 461 kts 268°
2026-05-04 23:51 52.62407 8.21792 35983 ft 461 kts 268°
2026-05-04 23:52 52.62557 8.11226 35987 ft 461 kts 268°
2026-05-04 23:52 52.62674 8.02440 35988 ft 461 kts 268°
2026-05-04 23:53 52.62827 7.90172 35989 ft 462 kts 268°
2026-05-04 23:53 52.62929 7.81312 35986 ft 461 kts 268°
2026-05-04 23:54 52.63041 7.70824 35988 ft 461 kts 268°
2026-05-04 23:54 52.63146 7.60174 35995 ft 463 kts 268°
2026-05-04 23:55 52.63241 7.49579 35998 ft 463 kts 268°
2026-05-04 23:56 52.63365 7.33744 36006 ft 463 kts 268°
2026-05-04 23:56 52.63437 7.23123 36003 ft 464 kts 268°
2026-05-04 23:57 52.63499 7.12481 36001 ft 464 kts 268°
2026-05-04 23:57 52.63551 7.01912 35998 ft 465 kts 268°
2026-05-04 23:58 52.63594 6.91263 35993 ft 465 kts 268°
2026-05-04 23:58 52.63627 6.80628 35994 ft 465 kts 268°
2026-05-04 23:59 52.63651 6.69948 35992 ft 466 kts 268°
2026-05-04 23:59 52.63666 6.59286 35985 ft 466 kts 268°
2026-05-05 00:00 52.63671 6.48588 35992 ft 467 kts 268°
2026-05-05 00:00 52.63666 6.37883 35977 ft 468 kts 268°
2026-05-05 00:01 52.63651 6.27178 35981 ft 467 kts 268°
2026-05-05 00:01 52.63627 6.16472 35991 ft 467 kts 268°
2026-05-05 00:02 52.63593 6.05764 35994 ft 467 kts 268°
2026-05-05 00:02 52.63550 5.95047 36000 ft 468 kts 268°
2026-05-05 00:03 52.63497 5.84387 35990 ft 469 kts 268°
2026-05-05 00:03 52.63434 5.73648 35990 ft 468 kts 268°
2026-05-05 00:04 52.63362 5.62912 35993 ft 469 kts 268°
2026-05-05 00:04 52.63279 5.52176 35999 ft 469 kts 268°
2026-05-05 00:05 52.63188 5.41438 35997 ft 469 kts 268°
2026-05-05 00:05 52.63086 5.30712 35999 ft 468 kts 268°
2026-05-05 00:06 52.62974 5.19987 36003 ft 468 kts 268°
2026-05-05 00:06 52.62855 5.09372 36002 ft 468 kts 268°
2026-05-05 00:07 52.62724 4.98626 36008 ft 467 kts 268°
2026-05-05 00:07 52.62584 4.87928 36013 ft 467 kts 268°
2026-05-05 00:08 52.62435 4.77239 36014 ft 467 kts 268°
2026-05-05 00:08 52.62276 4.66561 36011 ft 467 kts 267°
2026-05-05 00:09 52.62107 4.55856 36010 ft 467 kts 267°
2026-05-05 00:09 52.61930 4.45235 36005 ft 467 kts 267°
2026-05-05 00:10 52.61741 4.34507 36009 ft 468 kts 267°
2026-05-05 00:10 52.61806 4.23794 36038 ft 470 kts 278°
2026-05-05 00:11 52.63826 4.13539 36009 ft 475 kts 293°
2026-05-05 00:11 52.66651 4.03711 36020 ft 474 kts 294°
2026-05-05 00:12 52.69452 3.93961 36021 ft 473 kts 293°
2026-05-05 00:12 52.72247 3.84147 36025 ft 473 kts 294°
2026-05-05 00:13 52.75047 3.74310 36027 ft 473 kts 294°
2026-05-05 00:13 52.77314 3.66292 36029 ft 473 kts 294°
2026-05-05 00:14 52.79700 3.57842 36038 ft 473 kts 294°
2026-05-05 00:14 52.82476 3.47962 36035 ft 474 kts 293°